This is the latest recevied weather packets stored in our database for station/object W5ITZ. If no packets are shown the sender has not sent any weather packets the latest 10 day(s).
| Time | Temp. | Humidity | Pressure | Rain* | Wind** | Luminosity | Snow |
|---|---|---|---|---|---|---|---|
| 1778106392 | 27.78° C | 84% | 1008.1 hPa | 0 mm | - | 254 W/m² | - |
| 1778106088 | 27.78° C | 84% | 1007.9 hPa | 0 mm | - | 311 W/m² | - |
| 1778105786 | 27.78° C | 84% | 1008 hPa | 0 mm | - | 223 W/m² | - |
| 1778105484 | 27.78° C | 83% | 1007.9 hPa | 0 mm | - | 266 W/m² | - |
| 1778105180 | 27.78° C | 84% | 1008.2 hPa | 0 mm | - | 387 W/m² | - |
| 1778104875 | 27.78° C | 84% | 1008.1 hPa | 0 mm | - | 229 W/m² | - |
| 1778104572 | 27.78° C | 84% | 1008.1 hPa | 0 mm | - | 226 W/m² | - |
| 1778104268 | 27.78° C | 84% | 1008.3 hPa | 0 mm | - | 224 W/m² | - |
| 1778103965 | 27.78° C | 84% | 1008.2 hPa | 0 mm | - | 129 W/m² | - |
| 1778103662 | 27.78° C | 83% | 1008 hPa | 0 mm | - | 130 W/m² | - |
| 1778103360 | 28.33° C | 83% | 1008.4 hPa | 0 mm | - | 133 W/m² | - |
| 1778103057 | 28.89° C | 81% | 1008.2 hPa | 0 mm | - | 162 W/m² | - |
| 1778102754 | 28.89° C | 82% | 1008.2 hPa | 0 mm | - | 204 W/m² | - |
| 1778102449 | 28.89° C | 81% | 1008 hPa | 0 mm | - | 329 W/m² | - |
| 1778102145 | 28.33° C | 81% | 1008.1 hPa | 0 mm | - | 288 W/m² | - |
| 1778101842 | 28.33° C | 82% | 1008.5 hPa | 0 mm | - | 226 W/m² | - |
| 1778101539 | 28.89° C | 81% | 1008.5 hPa | 0 mm | - | 184 W/m² | - |
| 1778101235 | 28.89° C | 80% | 1008.2 hPa | 0 mm | - | 123 W/m² | - |
| 1778100932 | 28.89° C | 81% | 1008.3 hPa | 0 mm | - | 177 W/m² | - |
| 1778100627 | 28.89° C | 80% | 1008.4 hPa | 0 mm | - | 104 W/m² | - |
| 1778100326 | 29.44° C | 78% | 1008.3 hPa | 0 mm | - | 116 W/m² | - |
| 1778100022 | 30° C | 77% | 1008.3 hPa | 0 mm | - | 194 W/m² | - |
| 1778099721 | 30° C | 77% | 1008.2 hPa | 0 mm | - | 368 W/m² | - |
| 1778099417 | 30° C | 76% | 1008.4 hPa | 0 mm | - | 804 W/m² | - |
| 1778099114 | 30° C | 76% | 1008.2 hPa | 0 mm | - | 832 W/m² | - |
* Rain latest hour (hover to see other rain measurements)
** Current wind speed in m/s (hover to see current wind gust speed)